Content
SEND FEEDBACK

Daily
Averages
Monthly
Summary
United States of America

BURLINGTON, WISCONSIN


Home > North America > United States > Wisconsin
Elevation: 751 feet     Latitude: 42 40N     Longitude: 088 16W

WEATHER
 
SELECT A DAY
Number of Records: 181,527;   Date Range: 3/26/98 - 12/21/14
 
SHARE

PRINT THIS DATA

[ ← Previous Day ]
WEATHER ALMANAC - JANUARY 31, 2013
[ Next Day → ]
[ °C ]   °F
Weather ElementAverageHighLow
Temperature13.3 °F17.1 °F (1:53 am)5 °F (11:53 pm)
Dewpoint4.3 °F10 °F (1:53 am)-4 °F (11:53 pm)
Humidity67.9 %79 % (6:03 am)54 % (10:53 am)
Barometer29.82 in30.14 in (11:53 pm)29.64 in (2:44 am)
Wind Speed14.9 mph19.6 mph (4:53 pm)
Wind Gust31.1 mph (5:53 pm)
Weather ElementAverage
Visibility8.7 mi
Wind DirectionWNW (288 °)

Weather ElementTotal
Precipitation---
Heating Degree Days54 (Base 65)
Averaged from 30 records on January 31, 2013
WEATHER CONDITIONS BREAKOUT
WIND DIRECTION BREAKOUT
WEATHER BY HOUR - JANUARY 31, 2013
[ °C ]   °F
Local TimeTemperatureDewpointHumidityBarometerVisibilityWind DirectionWind SpeedGust SpeedPrecipitationEventsConditions
1:53 AM17.1 °F10.0 °F74 %29.66 in10.0 miWest (280°)17.3 mph24.2 mphOvercast
2:44 AM15.8 °F8.6 °F73 %29.64 in10.0 miWest (280°)15.0 mph25.3 mph0.00 inOvercast
2:53 AM16.0 °F9.0 °F74 %29.68 in10.0 miWest (270°)13.8 mph25.3 mph0.00 inOvercast
3:53 AM16.0 °F6.1 °F65 %29.68 in10.0 miWNW (290°)12.7 mph24.2 mphOvercast
4:53 AM15.1 °F6.1 °F68 %29.71 in10.0 miWNW (290°)13.8 mph25.3 mphMostly Cloudy
5:03 AM15.8 °F6.8 °F68 %29.68 in10.0 miWNW (290°)11.5 mph21.9 mphOvercast
5:53 AM15.1 °F6.1 °F68 %29.72 in9.0 miWest (280°)13.8 mph24.2 mph0.00 inOvercast
6:03 AM14.0 °F8.6 °F79 %29.69 in1.8 miWNW (290°)18.4 mph26.5 mph0.00 inSnowLight Snow
6:11 AM14.0 °F8.6 °F79 %29.69 in1.0 miWNW (300°)13.8 mph26.5 mph0.00 inSnowLight Snow
6:17 AM14.0 °F8.6 °F79 %29.70 in2.0 miWNW (300°)11.5 mph20.7 mph0.00 inSnowLight Snow
6:24 AM14.0 °F8.6 °F79 %29.70 in9.0 miWNW (290°)12.7 mph0.00 inOvercast
6:53 AM15.1 °F7.0 °F70 %29.74 in9.0 miWest (280°)12.7 mph21.9 mph0.00 inSnowLight Snow
7:07 AM15.8 °F8.6 °F73 %29.71 in7.0 miWest (270°)12.7 mph23.0 mph0.00 inSnowLight Snow
7:28 AM14.0 °F6.8 °F73 %29.72 in10.0 miWest (280°)11.5 mph21.9 mph0.00 inScattered Clouds
7:53 AM14.0 °F6.1 °F71 %29.78 in10.0 miWest (280°)12.7 mph21.9 mph0.00 inPartly Cloudy
8:53 AM15.1 °F1.9 °F56 %29.80 in10.0 miWNW (290°)12.7 mph23.0 mphClear
9:53 AM14.0 °F1.0 °F56 %29.83 in10.0 miWNW (300°)13.8 mph25.3 mphClear
10:53 AM15.1 °F1.0 °F54 %29.85 in10.0 miWNW (290°)15.0 mph26.5 mphPartly Cloudy
11:53 AM14.0 °F1.9 °F59 %29.86 in10.0 miWNW (300°)17.3 mph25.3 mphOvercast
12:53 PM14.0 °F3.0 °F62 %29.87 in10.0 miWNW (290°)16.1 mph23.0 mphOvercast
1:53 PM12.9 °F3.0 °F65 %29.89 in6.0 miWest (280°)15.0 mph23.0 mph0.00 inHaze
2:53 PM12.9 °F3.0 °F65 %29.91 in9.0 miWest (280°)16.1 mph23.0 mph0.00 inOvercast
3:53 PM12.0 °F1.9 °F64 %29.93 in9.0 miWNW (290°)15.0 mph24.2 mphOvercast
4:53 PM12.0 °F1.9 °F64 %29.95 in9.0 miWest (280°)19.6 mph25.3 mph0.00 inOvercast
5:53 PM10.9 °F0.0 °F61 %29.98 in10.0 miWNW (300°)19.6 mph31.1 mphOvercast
6:53 PM10.0 °F1.0 °F67 %30.02 in10.0 miWNW (300°)15.0 mph25.3 mphMostly Cloudy
7:53 PM9.0 °F1.0 °F70 %30.04 in10.0 miWNW (290°)13.8 mph21.9 mphOvercast
8:53 PM8.1 °F-0.9 °F67 %30.06 in10.0 miWNW (300°)19.6 mph28.8 mphOvercast
9:53 PM7.0 °F-2.0 °F67 %30.09 in10.0 miWNW (290°)19.6 mph27.6 mphOvercast
11:53 PM5.0 °F-4.0 °F66 %30.14 in10.0 miWNW (290°)16.1 mph26.5 mphPartly Cloudy
Hourly data recorded from KRAC, located miles away from Burlington, Wisconsin







STORIES FROM OUR PARTNERS